Temp
61 62 65 63 62 64 55 54 50 57 54 56 59 59 62 63 66 65 67 68 70 70 70 69 68 69 70 70 70 70 70 70 71 72 73 73 72 72 73 73 73 73 73 69
50 64 64 63 63 62 62 60 58 57 53 59 62 64 62 62 63 62 63 62 68 67 67 67 67 67 68 68 70 71 70 70 70 70 71 72 73 74 73 71 70 71 70 67
44 59 58 50 60 60 58 59 56 51 55 59 57 60 61 61 63 62 62 62 62 66 67 66 67 67 67 66 67 70 70 70 70 71 71 71 71 72 72 70 71 68 66 63
43 47 41 50 63 65 59 61 59 58 58 58 58 60 60 61 60 61 61 61 61 62 63 64 66 66 68 67 67 69 69 69 70 70 69 69 70 71 71 70 70 68 65 63
41 41 48 55 56 56 58 52 61 59 61 61 61 60 56 59 59 57 58 60 60 61 61 63 63 66 69 68 69 68 69 69 69 69 68 68 68 68 68 68 67 66 64 61
41 38 40 46 58 63 61 45 61 61 57 56 57 52 54 56 57 57 57 57 58 59 60 61 60 65 66 67 68 68 68 68 69 68 68 67 67 67 66 65 63 61 60 61
42 41 47 55 57 61 47 46 59 61 56 53 53 55 56 57 56 57 56 56 57 57 56 59 60 62 61 62 62 65 68 69 68 68 67 66 65 65 63 62 61 59 59 60
43 41 40 58 59 53 52 54 57 57 56 56 55 54 54 54 54 55 54 56 57 56 56 57 59 60 59 59 61 63 64 64 65 66 67 66 65 63 63 63 61 60 59 60
45 45 50 53 54 57 56 56 55 57 55 54 52 53 54 53 53 54 54 54 56 56 56 56 57 59 58 59 61 61 59 58 57 56 57 59 63 63 62 62 61 61 60 58
47 49 51 54 58 61 59 57 57 56 54 52 53 53 52 52 53 52 54 54 56 56 55 56 57 58 59 59 60 61 59 56 55 53 51 52 53 53 54 57 61 63 63 61
46 49 52 56 59 60 61 59 57 57 55 52 52 52 53 52 53 53 53 55 55 55 54 55 57 58 58 60 61 58 58 57 54 51 50 49 46 48 49 46 47 55 57 62
44 50 50 54 59 62 59 57 56 55 53 54 51 50 53 53 53 53 53 54 54 54 55 54 52 54 57 59 59 58 58 59 56 53 51 51 49 48 46 46 45 44 45 52
55 56 55 59 62 64 60 59 59 56 55 52 52 51 51 49 50 54 54 51 52 53 55 55 55 56 56 56 56 55 56 57 54 56 56 54 53 52 49 48 47 46 45 45
59 59 56 61 58 63 63 62 59 59 56 55 54 53 52 50 50 50 51 52 52 52 52 56 56 56 57 57 57 57 56 54 54 57 57 57 56 56 54 52 52 51 46 47
60 64 61 61 63 63 63 61 59 56 55 54 55 53 52 51 50 51 52 52 53 52 51 54 55 55 56 57 56 54 54 53 51 52 52 53 53 56 55 55 50 48 45 48
60 63 63 62 61 63 63 61 58 57 57 58 56 54 54 53 52 52 52 52 51 50 52 51 51 52 53 53 52 53 54 58 55 51 52 50 50 50 50 53 52 52 49 52
57 55 57 59 64 63 59 62 61 59 59 58 58 58 55 54 52 52 53 53 53 53 53 53 53 54 54 53 52 51 51 51 57 50 50 49 49 50 48 48 49 48 49 50
61 61 61 61 59 59 59 60 61 61 60 61 59 61 56 54 54 54 55 55 54 54 54 55 55 55 55 54 52 51 50 50 50 49 49 50 50 49 50 49 47 48 47 47
65 62 62 63 61 59 58 57 58 58 59 59 58 58 58 57 55 56 55 54 54 53 56 56 59 60 54 55 55 51 51 51 50 50 49 50 50 49 50 50 48 47 47 48
63 63 64 63 62 60 59 59 59 59 59 59 57 56 54 56 58 56 53 52 52 54 55 56 57 56 55 55 61 52 55 52 51 49 49 48 49 49 49 49 50 50 48 49
61 61 61 60 59 59 60 59 58 57 57 57 57 54 53 53 54 53 50 50 51 52 53 56 54 53 53 54 57 52 51 52 51 50 49 49 52 48 48 49 50 50 50 49
58 59 59 59 58 58 58 58 58 58 57 56 56 54 53 52 51 49 50 51 50 53 51 50 51 57 57 59 54 54 54 51 50 50 53 53 51 53 52 51 48 52 54 48
57 58 58 57 57 57 57 57 57 57 56 54 54 53 52 51 50 49 48 50 50 52 50 49 54 56 56 48 48 49 50 50 50 49 49 52 53 53 52 54 51 53 49 48
57 57 58 59 57 56 54 54 56 56 56 54 55 55 53 50 48 48 51 52 52 52 50 50 53 56 53 47 48 48 47 48 48 50 51 47 50 50 50 51 48 52 52 51
58 58 57 56 57 59 57 54 53 52 54 54 57 57 56 51 52 51 50 52 53 52 51 55 56 55 48 48 47 47 47 47 48 48 47 47 47 46 46 46 47 48 47 48
57 59 61 62 64 60 58 57 56 56 57 56 54 56 53 51 52 53 51 51 52 52 51 50 51 50 48 48 49 48 47 47 47 47 47 47 47 47 47 47 46 46 47 47
57 54 54 52 53 61 61 59 57 57 57 55 54 55 53 52 54 53 52 52 52 52 51 51 50 50 49 49 49 49 48 47 44 47 47 46 45 45 45 45 46 47 46 46
MSLP
1011.01 1010.05 1009.48 1009.38 1009.56 1009.67 1009.95 1010.04 1010.37 1010.09 1010.99 1011.45 1011.51 1011.24 1011.89 1011.81 1011.75 1011.11 1011.09 1011.48 1011.19 1012.18 1012.55 1012.85 1013.23 1013.54 1014.07 1014.43 1014.83 1015.25 1015.57 1016.27 1016.97 1016.85 1016.79 1017.21 1017.82 1018.27 1018.75 1018.81 1019.01 1019.05 1019.31 1019.86
1011.84 1010.89 1009.87 1009.59 1010.06 1010.33 1010.52 1010.62 1010.84 1011.51 1012.13 1012.62 1012.33 1012.47 1012.02 1011.97 1012.70 1012.79 1012.91 1013.33 1013.22 1012.23 1012.89 1013.20 1013.24 1013.60 1013.95 1014.34 1014.37 1014.22 1014.75 1016.05 1016.74 1016.93 1017.08 1017.13 1017.33 1017.82 1018.19 1018.75 1019.11 1019.35 1019.49 1019.71
1012.98 1011.64 1010.75 1011.32 1011.17 1011.52 1012.03 1012.18 1012.31 1012.94 1013.82 1013.83 1013.58 1013.26 1013.15 1012.84 1013.71 1013.67 1012.99 1014.65 1014.77 1013.96 1013.87 1013.69 1013.75 1014.00 1014.29 1014.44 1014.56 1014.50 1015.26 1015.97 1016.35 1016.37 1016.99 1017.35 1017.39 1017.68 1018.01 1018.60 1019.27 1019.77 1019.93 1020.25
1014.39 1013.08 1012.80 1013.41 1012.50 1012.05 1012.61 1013.44 1013.63 1013.91 1013.95 1014.58 1014.54 1014.54 1014.03 1014.64 1015.43 1015.23 1014.65 1015.77 1014.37 1014.97 1014.85 1014.51 1014.62 1014.76 1014.95 1014.74 1014.85 1014.93 1015.49 1015.11 1015.71 1016.35 1017.03 1017.39 1017.40 1017.51 1017.75 1018.25 1018.81 1019.58 1020.11 1020.19
1016.03 1015.21 1014.27 1013.95 1014.13 1013.99 1013.12 1014.53 1014.59 1014.69 1014.78 1015.01 1015.40 1015.64 1016.16 1016.28 1016.59 1017.13 1017.15 1017.58 1016.83 1016.22 1015.28 1015.29 1014.90 1014.49 1014.64 1014.83 1015.07 1015.22 1015.23 1015.35 1015.82 1016.19 1017.06 1017.49 1017.54 1017.66 1017.85 1018.39 1019.00 1019.55 1019.95 1020.66
1017.22 1017.01 1015.93 1015.78 1014.79 1014.25 1014.04 1015.47 1015.68 1015.23 1015.73 1015.77 1015.82 1016.45 1017.54 1017.78 1017.73 1017.93 1017.75 1017.80 1017.65 1016.79 1016.05 1015.70 1015.34 1014.96 1015.16 1015.33 1015.31 1015.11 1015.37 1015.50 1015.79 1016.28 1016.95 1017.36 1017.73 1018.01 1018.22 1018.75 1019.25 1019.60 1020.33 1020.93
1017.32 1017.46 1016.61 1015.63 1014.72 1014.36 1014.93 1016.24 1015.82 1015.25 1015.98 1016.28 1016.91 1017.58 1018.04 1018.47 1018.67 1018.73 1018.68 1018.37 1017.86 1017.09 1017.20 1016.90 1016.27 1015.77 1015.94 1015.56 1014.69 1015.62 1014.75 1015.87 1015.96 1016.55 1017.16 1017.79 1018.03 1018.32 1018.71 1019.25 1020.03 1020.53 1020.96 1021.08
1017.59 1017.16 1016.82 1015.56 1014.99 1015.17 1016.01 1016.07 1016.27 1016.81 1017.04 1017.31 1017.81 1018.31 1018.57 1018.54 1018.79 1019.02 1018.90 1018.64 1018.44 1018.34 1018.01 1017.39 1016.63 1016.51 1016.54 1016.55 1016.76 1016.14 1016.05 1015.52 1014.95 1016.68 1017.61 1018.14 1018.36 1018.87 1019.07 1019.31 1020.27 1021.06 1021.21 1021.08
1017.31 1016.51 1015.77 1015.64 1015.59 1015.85 1015.66 1015.81 1016.70 1017.25 1017.54 1017.75 1018.20 1018.81 1019.41 1019.57 1019.32 1018.97 1018.99 1019.36 1019.12 1018.74 1018.23 1017.88 1017.42 1017.33 1017.41 1017.51 1017.41 1017.36 1017.52 1017.82 1018.03 1018.32 1018.74 1018.99 1019.25 1019.61 1019.93 1019.99 1020.65 1021.01 1021.30 1021.63
1016.99 1016.41 1015.95 1015.74 1015.66 1015.61 1015.83 1016.03 1016.32 1017.39 1018.19 1018.41 1018.77 1019.17 1019.53 1020.05 1019.99 1019.46 1018.95 1018.88 1019.61 1019.00 1019.01 1018.75 1018.41 1018.34 1018.25 1018.28 1018.37 1018.55 1018.85 1019.11 1019.44 1019.64 1020.07 1020.45 1020.67 1020.86 1020.98 1021.37 1021.55 1021.40 1021.47 1021.82
1017.00 1016.49 1016.48 1015.89 1015.76 1015.69 1016.14 1016.65 1016.95 1017.61 1018.47 1019.07 1019.25 1019.53 1019.72 1020.28 1020.30 1020.35 1019.85 1019.58 1019.93 1019.35 1019.51 1019.37 1019.40 1018.91 1019.01 1019.05 1019.34 1019.31 1019.48 1020.05 1020.21 1020.63 1020.76 1021.40 1021.95 1022.24 1022.65 1022.67 1022.54 1022.49 1022.02 1021.67
1015.83 1015.61 1015.78 1015.43 1015.47 1015.88 1016.03 1016.51 1017.17 1017.46 1018.67 1019.14 1019.58 1019.91 1020.17 1020.55 1020.73 1020.73 1020.84 1020.61 1020.47 1020.34 1020.42 1020.45 1020.29 1020.13 1019.75 1019.78 1019.83 1020.15 1020.25 1020.60 1020.83 1020.92 1021.38 1021.72 1022.35 1022.84 1023.31 1023.37 1023.08 1022.86 1022.65 1022.10
1014.09 1014.02 1014.95 1014.64 1014.87 1015.48 1015.57 1016.41 1017.09 1017.59 1018.29 1019.16 1019.94 1020.21 1020.51 1020.87 1020.97 1020.78 1021.05 1021.48 1021.25 1020.94 1020.87 1021.04 1020.98 1020.82 1020.72 1020.74 1020.76 1020.97 1021.11 1021.05 1021.11 1021.43 1021.37 1021.62 1022.15 1022.58 1023.01 1023.53 1023.34 1023.49 1023.09 1022.71
1013.21 1013.78 1014.31 1014.44 1015.01 1015.37 1015.63 1016.31 1017.09 1017.79 1018.55 1019.14 1019.50 1019.97 1020.29 1020.68 1021.00 1021.15 1021.17 1021.21 1021.23 1021.28 1021.21 1021.05 1021.33 1021.26 1021.05 1021.05 1021.09 1020.99 1020.91 1020.93 1021.25 1021.15 1021.30 1021.75 1022.01 1022.47 1022.47 1023.17 1023.23 1023.39 1023.96 1023.62
1013.47 1013.33 1013.42 1013.83 1014.47 1015.04 1015.57 1016.43 1017.25 1017.93 1018.60 1018.95 1019.41 1019.77 1019.99 1020.28 1020.73 1021.01 1021.08 1021.19 1021.17 1021.32 1021.46 1021.26 1021.15 1021.45 1021.45 1021.38 1021.50 1021.51 1021.56 1021.55 1021.54 1021.55 1021.83 1021.93 1022.13 1022.12 1022.61 1022.78 1022.85 1023.49 1023.81 1023.64
1013.17 1013.28 1013.47 1013.85 1014.25 1014.82 1015.34 1016.06 1016.66 1017.41 1018.02 1018.38 1018.76 1019.31 1019.70 1020.18 1020.41 1020.54 1020.63 1020.74 1021.07 1021.12 1021.14 1021.25 1021.25 1021.30 1021.42 1021.31 1021.45 1021.53 1021.71 1021.75 1021.92 1022.26 1022.39 1022.55 1022.59 1022.49 1022.64 1022.44 1022.87 1023.16 1023.21 1023.13
1012.92 1013.12 1013.30 1013.65 1013.97 1014.44 1015.09 1015.46 1015.84 1016.68 1017.35 1017.69 1017.99 1018.53 1019.49 1019.80 1020.19 1020.37 1020.22 1020.21 1020.32 1020.51 1020.63 1020.65 1020.64 1020.95 1021.25 1021.38 1021.55 1021.74 1021.93 1022.03 1021.93 1022.15 1022.29 1022.39 1022.55 1022.50 1022.52 1022.59 1022.83 1023.21 1023.34 1023.10
1012.08 1012.49 1012.80 1013.27 1013.85 1014.39 1014.91 1014.96 1015.42 1016.13 1016.73 1017.05 1017.61 1018.26 1018.89 1019.31 1019.63 1019.65 1019.47 1019.49 1019.82 1020.13 1020.21 1020.04 1020.19 1020.49 1020.75 1021.05 1021.41 1021.63 1021.88 1022.11 1022.23 1022.23 1022.23 1022.47 1022.65 1022.63 1022.60 1022.76 1022.79 1022.76 1022.93 1022.87
1011.59 1012.27 1012.61 1012.96 1013.46 1014.06 1014.58 1014.95 1015.30 1015.66 1016.06 1016.47 1017.05 1017.67 1018.05 1018.55 1018.95 1018.92 1018.88 1019.33 1019.68 1019.95 1019.58 1019.46 1019.55 1019.96 1020.27 1020.57 1021.08 1021.35 1021.57 1021.91 1022.15 1022.11 1022.17 1022.33 1022.39 1022.31 1022.52 1022.64 1022.75 1022.79 1022.73 1022.79
1011.52 1011.86 1012.13 1012.64 1013.21 1013.73 1014.28 1014.70 1015.09 1015.51 1015.73 1016.19 1016.77 1017.40 1017.88 1018.05 1018.43 1018.55 1018.82 1019.47 1019.49 1019.23 1018.99 1018.96 1019.20 1019.46 1019.71 1020.07 1020.50 1020.77 1021.12 1021.33 1021.64 1021.90 1022.03 1022.07 1022.02 1022.09 1022.09 1022.08 1022.10 1022.31 1022.56 1022.52
1011.69 1012.03 1012.46 1012.88 1013.35 1013.73 1014.01 1014.36 1015.04 1015.58 1015.91 1016.12 1016.70 1017.27 1017.74 1017.99 1018.04 1018.40 1019.11 1019.42 1019.41 1019.19 1019.00 1018.97 1019.11 1019.35 1019.59 1019.87 1020.16 1020.43 1020.79 1020.95 1021.08 1021.31 1021.47 1021.48 1021.53 1021.64 1021.74 1021.88 1021.75 1021.77 1021.91 1022.07
1011.87 1012.28 1012.63 1013.01 1013.48 1013.90 1014.17 1014.43 1014.82 1015.23 1015.68 1016.17 1016.65 1017.14 1017.68 1018.20 1018.45 1018.69 1018.83 1019.08 1019.29 1019.29 1019.29 1019.46 1019.62 1019.53 1019.66 1019.78 1019.99 1020.21 1020.31 1020.43 1020.65 1020.87 1020.85 1020.79 1020.88 1021.00 1020.99 1021.18 1021.40 1021.13 1021.01 1021.27
1011.57 1012.01 1012.40 1012.85 1013.25 1013.61 1013.94 1014.24 1014.57 1014.88 1015.55 1016.01 1016.59 1017.14 1017.58 1017.83 1018.21 1018.83 1019.16 1019.25 1019.11 1019.25 1019.46 1019.65 1019.71 1019.77 1019.86 1019.96 1020.13 1020.28 1020.28 1020.28 1020.37 1020.39 1020.41 1020.39 1020.31 1020.36 1020.33 1020.46 1020.45 1020.44 1020.53 1020.55
1011.22 1011.63 1011.82 1012.17 1012.56 1013.13 1013.75 1013.97 1014.21 1014.52 1014.97 1015.55 1015.88 1016.23 1016.83 1017.79 1018.24 1018.22 1018.19 1018.63 1018.80 1019.09 1019.43 1019.62 1019.73 1019.79 1019.93 1020.09 1020.14 1020.18 1020.15 1020.14 1020.15 1020.15 1020.12 1020.07 1020.13 1020.12 1020.17 1020.09 1020.25 1020.15 1020.13 1019.99
1010.43 1010.76 1011.30 1011.76 1012.20 1012.50 1012.78 1013.37 1014.16 1014.52 1014.91 1015.34 1015.79 1016.13 1016.28 1016.89 1017.41 1018.10 1018.15 1018.43 1018.65 1018.96 1019.25 1019.39 1019.60 1019.79 1019.98 1019.99 1019.99 1020.01 1020.01 1020.00 1019.97 1019.97 1020.01 1020.02 1019.98 1020.00 1020.08 1020.09 1020.04 1019.92 1019.77 1019.60
1009.99 1010.20 1010.38 1010.40 1010.58 1011.31 1011.93 1012.75 1013.49 1013.96 1014.42 1015.07 1015.53 1015.73 1016.07 1016.43 1016.85 1017.55 1018.04 1018.25 1018.40 1018.76 1019.05 1019.19 1019.33 1019.55 1019.75 1019.85 1019.81 1019.81 1019.90 1019.83 1019.73 1019.73 1019.78 1019.81 1019.82 1019.82 1019.83 1019.77 1019.61 1019.37 1019.19 1019.03
1009.27 1009.61 1010.12 1010.53 1010.72 1010.71 1011.23 1011.98 1012.73 1013.45 1014.01 1014.75 1015.50 1015.62 1015.81 1016.26 1016.52 1017.06 1017.55 1017.95 1018.21 1018.40 1018.66 1018.94 1019.10 1019.21 1019.43 1019.56 1019.58 1019.53 1019.63 1019.69 1019.63 1019.71 1019.78 1019.74 1019.72 1019.75 1019.75 1019.65 1019.32 1018.81 1018.49 1018.28
Wind_Speed
10 9 3 2 5 13 5 5 6 4 6 4 5 9 11 14 18 19 15 3 11 11 12 12 12 11 10 11 11 7 6 3 6 8 6 5 3 2 2 6 6 6 4 6
1 7 7 1 14 13 9 6 6 7 9 6 6 3 12 11 10 16 19 16 6 9 9 11 10 8 7 8 9 7 7 5 5 5 4 6 7 5 5 4 3 2 4 7
4 5 4 8 6 13 12 11 3 9 5 6 10 13 13 13 4 6 19 15 10 6 0 4 6 7 10 6 6 9 8 7 7 5 1 5 6 8 7 7 4 2 5 7
3 5 3 0 8 17 18 13 7 5 6 9 9 12 15 15 12 12 14 4 10 7 8 7 4 5 4 5 4 6 8 9 7 6 4 2 3 5 5 4 7 5 4 7
3 1 2 3 7 5 3 7 7 5 4 4 7 7 10 13 12 10 8 2 2 1 4 5 6 4 4 5 5 6 7 6 6 8 6 5 3 3 4 6 6 6 6 7
4 2 5 5 9 9 2 3 5 5 5 2 3 3 2 7 8 8 7 5 3 5 5 6 7 3 7 2 3 7 5 6 8 7 5 5 4 5 4 5 7 7 7 6
5 1 5 2 12 9 4 6 1 3 2 2 3 3 6 6 7 6 5 6 6 7 6 5 7 6 10 7 7 4 4 4 8 8 7 5 4 4 6 7 6 6 5 4
2 5 6 2 5 5 4 3 4 4 3 7 6 6 6 5 6 7 7 8 7 6 6 7 9 9 10 10 7 9 8 7 9 8 5 4 5 4 6 8 7 5 5 5
6 6 3 3 2 2 4 8 5 8 4 4 5 4 5 3 4 5 7 6 5 6 8 9 10 9 11 7 8 10 11 10 11 10 9 7 6 4 4 4 4 4 4 3
3 4 4 3 2 4 3 6 9 5 3 5 5 6 7 4 3 3 4 7 3 7 7 8 8 8 8 7 6 9 10 8 8 9 9 9 7 6 5 4 2 3 4 4
2 4 4 7 1 9 10 11 12 10 6 6 7 6 6 4 4 3 4 5 3 6 5 6 5 7 6 5 5 7 7 6 6 6 8 6 6 5 4 3 2 3 2 3
7 9 5 6 7 11 13 12 11 13 7 6 4 6 6 5 3 4 4 1 5 6 6 5 7 6 7 6 5 5 5 5 3 4 4 5 4 4 8 6 7 5 4 2
6 9 5 7 13 7 12 10 9 10 8 8 5 5 4 3 2 5 5 4 5 5 6 5 5 5 5 5 5 6 4 4 3 4 4 4 4 3 4 2 4 6 4 1
5 9 2 6 7 10 12 12 11 9 7 7 8 6 6 5 3 4 4 5 3 3 3 4 3 3 2 3 4 5 5 8 3 3 2 2 2 2 3 3 2 1 3 3
7 6 8 7 12 12 10 12 11 11 9 7 5 6 6 8 7 7 5 4 5 3 1 2 3 3 3 3 4 4 4 3 4 3 3 3 2 1 3 3 3 1 0 2
8 8 8 12 12 13 14 14 13 12 11 11 10 8 8 5 5 6 6 6 5 5 6 5 4 4 3 2 2 2 2 3 4 2 2 2 2 3 3 2 2 3 2 3
7 5 6 7 11 11 9 13 13 13 12 11 12 10 8 7 6 7 8 7 7 7 7 6 6 4 4 4 4 2 2 1 2 2 3 2 2 3 2 2 3 4 4 4
8 8 10 9 7 7 7 7 10 13 13 14 9 11 9 9 11 10 10 8 7 6 7 7 6 6 6 7 6 4 2 2 2 1 2 1 2 1 2 2 1 3 3 2
7 10 9 10 9 9 8 8 8 8 9 8 8 12 12 10 8 10 7 7 7 7 9 7 10 10 8 9 8 5 5 4 4 3 3 4 3 3 2 3 3 4 4 4
6 7 9 8 9 8 8 8 10 9 8 8 8 8 6 6 5 4 5 4 2 4 6 7 7 6 7 8 12 5 4 5 5 5 4 4 4 5 4 5 5 3 5 5
8 8 9 9 8 8 8 8 9 8 7 7 9 9 8 7 7 7 7 5 2 2 7 8 4 1 2 4 6 5 5 5 4 4 5 6 6 5 5 6 5 5 5 4
7 7 8 8 8 8 7 7 8 7 7 7 6 8 8 7 6 5 1 6 2 5 5 5 3 5 4 5 3 4 5 5 5 4 4 4 5 6 6 5 6 6 5 5
7 7 8 8 9 9 7 7 8 9 9 8 9 8 6 4 5 6 4 4 5 6 5 4 4 5 3 2 1 0 1 2 4 4 4 4 4 5 5 6 6 6 5 5
7 8 9 9 8 7 8 7 8 8 9 8 9 9 8 4 3 0 5 7 10 8 5 5 5 6 4 1 2 3 3 2 2 2 2 2 2 3 3 3 4 4 4 5
9 9 8 9 10 10 10 8 7 8 9 7 7 6 8 5 6 5 5 6 12 7 5 8 8 5 2 1 1 2 2 2 3 2 2 2 2 2 2 3 5 5 5 5
8 8 9 14 13 9 8 10 10 9 9 8 5 5 5 5 5 7 5 6 6 6 5 4 4 4 4 3 2 1 1 1 1 1 2 1 1 1 3 5 5 5 6 6
3 2 2 3 1 7 9 10 11 10 8 7 5 3 5 5 7 7 7 6 5 5 5 5 5 5 5 5 5 3 3 1 2 1 1 2 2 2 4 5 5 6 6 6
Wind_Direction
301 267 261 178 7 11 35 245 160 281 76 4 89 86 66 56 30 37 27 351 164 163 174 170 166 161 160 158 156 158 123 140 217 222 186 147 120 78 294 204 217 207 170 112
259 305 313 334 52 56 17 17 33 27 69 347 331 82 48 54 60 48 41 5 310 155 164 178 172 180 169 171 171 161 149 179 194 189 151 170 129 140 110 17 253 123 132 120
288 301 71 47 64 83 71 31 22 47 315 330 18 39 42 48 6 63 59 11 1 355 228 207 199 193 203 193 150 150 148 150 176 125 289 227 182 172 188 149 104 107 113 85
257 10 73 325 34 93 84 53 59 83 50 62 63 48 37 32 47 66 86 307 24 6 12 19 322 234 236 170 166 159 180 177 161 157 185 179 136 183 175 166 161 149 127 111
50 301 203 63 15 334 339 43 354 67 69 115 141 96 45 20 35 42 59 31 332 224 82 27 356 299 218 173 164 170 181 174 159 140 154 161 169 130 126 127 127 131 116 117
64 317 197 248 288 317 190 46 336 77 71 356 323 82 71 33 37 38 29 16 19 6 32 41 13 26 77 55 185 178 184 158 138 130 149 148 155 122 76 92 104 102 104 116
132 140 266 254 298 295 96 210 5 84 27 66 104 97 103 76 57 49 49 51 25 40 29 17 35 53 70 73 31 351 75 132 128 124 130 148 121 110 109 100 95 94 109 102
48 119 261 210 299 114 192 1 94 101 99 107 100 98 89 73 75 58 41 36 46 50 51 34 46 61 72 57 30 40 74 64 69 100 108 112 103 89 115 123 120 128 119 94
183 216 230 273 212 160 180 142 156 146 150 149 131 114 108 95 84 80 84 40 31 58 57 43 46 47 68 46 57 62 59 56 50 56 53 42 76 100 105 110 129 140 129 114
81 272 227 238 172 161 187 123 124 110 122 100 118 93 91 90 71 39 72 69 8 75 70 63 50 56 59 45 45 77 83 75 75 69 54 39 49 38 52 32 34 145 140 137
348 338 9 297 307 142 129 122 111 109 114 141 128 116 111 79 51 54 56 72 24 61 45 63 58 62 52 61 69 76 79 81 76 81 90 80 54 37 55 65 92 -0 341 145
213 202 175 209 197 169 145 136 135 124 122 112 117 131 130 118 68 37 11 57 106 86 77 43 35 38 43 43 68 69 89 115 126 119 124 116 116 104 44 36 18 42 310 107
195 164 183 162 151 165 126 136 138 131 131 139 137 138 122 123 124 111 95 57 49 64 71 41 46 49 33 34 62 71 69 56 76 142 136 141 146 134 131 6 8 347 29 144
159 121 105 141 159 155 146 144 138 135 144 160 162 162 155 150 138 137 141 153 133 80 83 93 77 77 72 59 65 51 49 58 36 37 98 147 161 192 133 166 174 178 269 257
176 196 176 142 146 155 147 141 150 155 168 169 174 177 178 174 186 194 184 181 144 129 337 14 39 332 347 22 41 50 60 52 49 64 67 71 82 67 183 187 156 160 323 315
192 170 163 154 162 158 161 172 167 173 177 186 182 197 201 206 208 199 201 189 179 218 218 214 217 244 280 303 351 23 63 92 85 67 60 66 81 90 19 18 147 157 191 209
143 134 141 150 165 171 172 188 179 177 184 186 195 195 187 192 205 217 222 210 207 222 224 208 228 206 210 207 212 226 251 302 132 71 43 29 26 25 101 109 176 204 227 235
167 172 160 151 151 135 133 142 158 176 185 195 182 184 182 190 211 222 221 206 204 227 231 226 212 212 209 201 199 203 202 236 258 229 174 264 262 227 356 75 185 183 234 304
154 177 173 153 160 150 146 138 140 142 137 151 170 180 185 198 208 229 219 192 201 202 243 218 219 208 207 203 192 191 197 206 221 230 215 230 257 250 239 238 185 220 206 199
144 165 161 153 148 150 154 150 155 155 163 152 137 132 136 142 154 112 85 92 160 212 274 240 226 210 202 209 207 188 206 208 210 217 226 226 226 236 236 236 240 208 213 224
165 159 152 145 155 163 167 158 161 174 182 160 154 158 150 153 147 129 132 131 289 28 77 69 115 195 224 212 201 192 220 227 210 221 223 219 223 225 227 238 229 223 223 224
166 163 162 159 153 165 170 159 151 163 163 156 143 141 140 147 122 89 121 157 185 115 95 83 61 74 64 82 178 226 228 229 224 225 231 234 223 228 220 225 230 239 223 220
172 178 174 170 175 190 188 178 173 160 153 153 149 151 151 168 140 126 130 198 143 136 120 119 116 92 64 57 54 302 251 237 247 246 241 243 235 233 228 228 223 217 218 214
183 188 193 189 177 171 190 208 176 167 158 155 158 162 145 130 44 0 132 149 143 135 140 152 127 123 112 56 327 297 275 244 232 247 265 268 255 237 230 234 262 259 244 237
197 194 185 180 189 206 198 168 144 143 150 154 151 148 145 159 148 191 155 158 159 150 160 173 171 189 171 224 352 323 298 271 261 239 249 252 260 250 263 261 256 258 259 261
201 204 203 201 201 188 170 161 170 164 155 153 161 160 141 146 143 148 172 176 163 169 186 198 205 202 192 213 189 88 351 302 229 206 205 228 234 266 277 278 270 258 251 241
206 91 76 44 93 173 169 168 156 157 143 135 149 172 155 163 168 167 174 174 183 201 199 201 214 213 207 205 209 190 147 238 222 234 264 244 238 260 295 289 278 277 262 247